ECMWFNIL_con_mucape_096.txt.gz
CAPE
142 167 162 0 0 0 0 0 0 0 0 0 0 0 0 0 0 0 0 0 0 0 0 0 0 0 0 0 0 0 0 0 0 0 0 0 0 0 0 0 0 0
220 199 108 0 0 0 0 0 0 0 0 0 0 0 0 0 0 0 0 0 0 0 0 0 0 0 0 0 0 0 0 0 0 0 0 0 0 0 0 0 0 0
245 178 88 0 0 0 0 0 0 0 0 0 0 0 0 0 0 0 0 0 0 0 0 0 0 0 0 0 0 0 0 0 0 0 0 0 0 0 0 0 0 0
252 207 175 1 2 2 1 1 0 0 0 0 0 0 0 0 0 0 0 0 0 0 0 0 0 0 0 0 0 0 0 0 0 0 0 0 0 0 0 0 0 0
269 253 158 3 5 5 4 1 0 0 0 0 0 0 0 0 0 0 0 0 0 0 0 0 0 0 0 0 0 0 0 0 0 0 0 0 0 0 0 0 0 0
268 290 269 227 3 2 1 0 0 0 0 0 0 0 0 0 0 0 0 0 0 0 0 0 0 0 0 0 0 0 0 0 0 0 0 0 0 0 0 0 0 0
293 253 276 263 103 0 0 0 0 0 0 0 0 0 0 0 0 0 0 0 0 0 0 0 0 0 0 0 0 0 0 0 0 0 0 0 0 0 0 0 0 0
358 302 227 228 211 0 0 0 0 0 0 0 0 0 0 0 0 0 0 0 0 0 0 0 0 0 0 0 0 0 0 0 0 0 0 0 0 0 0 0 0 0
460 305 132 136 133 100 0 0 0 0 0 0 0 0 0 0 0 0 0 0 0 0 0 0 0 0 0 0 0 0 0 0 0 0 0 0 0 0 0 0 0 0
519 404 168 112 112 0 0 0 0 0 0 0 0 0 0 0 0 0 0 0 0 0 0 0 0 0 0 0 0 0 0 0 0 0 0 0 0 0 0 0 0 0
555 446 214 93 110 49 0 0 0 0 0 0 0 0 0 0 0 0 0 0 0 0 0 0 0 0 0 0 0 0 0 0 0 0 0 0 0 0 0 0 0 0
539 398 157 0 39 47 0 0 0 0 0 0 0 0 0 0 0 0 0 0 0 0 0 0 0 0 0 0 0 0 0 0 0 0 0 0 0 0 0 0 0 0
446 219 37 0 0 0 0 0 0 0 0 0 0 0 0 0 0 0 0 0 0 0 0 0 0 0 0 0 0 0 0 0 0 0 0 0 0 0 0 0 0 0
224 9 0 0 0 29 37 0 0 0 0 0 0 0 0 0 0 0 0 0 0 0 0 0 0 0 0 0 0 0 0 0 0 0 0 0 0 0 0 0 0 0
131 0 0 0 0 110 32 0 0 0 0 0 0 0 0 0 0 0 0 0 0 0 0 0 0 0 0 0 0 0 0 0 0 0 0 0 0 0 0 0 0 0
205 0 0 0 0 137 57 0 0 0 0 0 0 0 0 0 0 0 0 0 0 0 0 0 0 0 0 0 0 0 0 0 0 0 0 0 0 0 0 0 0 0
143 1 0 103 83 121 12 0 0 0 0 0 0 0 0 0 0 0 0 0 0 0 0 0 0 0 0 0 0 0 0 0 0 0 0 0 0 0 0 0 0 0
60 29 31 50 102 88 0 0 0 0 0 0 0 0 0 0 0 0 0 0 0 0 0 0 0 0 0 0 0 0 0 0 0 0 0 0 0 0 0 0 0 0
115 109 36 70 106 35 0 0 0 0 0 0 0 0 0 0 0 0 0 0 0 0 0 0 0 0 0 0 0 0 0 0 0 0 0 0 0 0 0 0 0 0
159 20 30 105 69 0 0 0 0 0 0 0 0 0 0 0 0 0 0 0 0 0 0 0 0 0 0 0 0 0 0 0 0 0 0 0 0 0 0 0 0 0
67 0 60 102 29 0 0 0 0 0 0 0 0 0 0 0 0 0 0 0 0 0 0 0 0 0 0 0 0 0 0 0 0 0 0 0 0 0 0 0 0 0
0 13 66 58 8 0 0 0 0 0 0 0 0 0 0 0 0 0 0 0 0 0 0 0 0 0 0 0 0 0 0 0 0 0 0 0 0 0 0 0 0 0
4 28 26 17 0 0 0 0 0 0 0 0 0 0 0 0 0 0 0 0 0 0 0 0 0 0 0 0 0 0 0 0 0 0 0 0 0 0 0 0 0 0
26 17 4 0 0 0 0 0 0 0 0 0 0 0 0 0 0 0 0 0 0 0 0 0 0 0 0 0 0 0 0 0 0 0 0 0 0 0 0 0 0 0
38 5 0 0 0 0 0 0 0 0 0 0 0 0 0 0 0 0 0 0 0 0 0 0 0 0 0 0 0 0 0 0 0 0 0 0 0 0 0 0 0 0
10 0 0 0 0 0 0 0 0 0 0 0 0 0 0 0 0 0 0 0 0 0 0 0 0 0 0 0 0 0 0 0 0 0 0 0 0 0 0 0 0 0

ECMWFNIL_con_mucape_102.txt.gz
CAPE
661 517 456 451 395 314 196 107 112 163 0 0 0 0 0 0 0 0 0 0 0 0 0 0 0 0 0 0 0 0 0 0 0 0 0 0 0 0 0 0 0 0
519 502 533 510 367 250 163 202 192 0 0 0 0 0 0 0 0 0 0 0 0 0 0 0 0 0 0 0 0 0 0 0 0 0 0 0 0 0 0 0 0 0
558 565 503 463 338 186 231 237 69 0 0 0 0 0 0 0 0 0 0 0 0 0 0 0 0 0 0 0 0 0 0 0 0 0 0 0 0 0 0 0 0 0
597 515 503 402 236 246 266 215 143 0 0 0 0 0 0 0 0 0 0 0 0 0 0 0 0 0 0 0 0 0 0 0 0 0 0 0 0 0 0 0 0 0
569 570 429 266 290 292 253 248 211 33 43 0 0 24 0 0 0 0 0 0 0 0 0 0 0 0 0 0 0 0 0 0 0 0 0 0 0 0 0 0 0 0
587 479 286 323 317 249 216 212 195 177 154 100 76 102 80 0 0 0 0 0 0 0 0 0 0 0 0 0 0 0 0 0 0 0 0 0 0 0 0 0 0 0
593 403 342 344 316 242 234 208 214 186 116 0 0 0 0 0 0 0 0 0 0 0 0 0 0 0 0 0 0 0 0 0 0 0 0 0 0 0 0 0 0 0
432 363 378 386 279 259 262 341 385 319 254 159 0 0 0 0 35 0 0 0 0 0 0 0 0 0 0 0 0 0 0 0 0 0 0 0 0 0 0 0 0 0
402 370 417 388 324 364 426 436 418 394 345 243 122 64 39 0 16 0 0 0 0 0 0 0 0 0 0 0 0 0 0 0 0 0 0 0 0 0 0 0 0 0
381 433 458 425 423 438 448 467 437 354 350 275 181 64 0 0 0 0 0 0 0 0 0 0 0 0 0 0 0 0 0 0 0 0 0 0 0 0 0 0 0 0
478 526 556 494 448 416 428 459 426 372 323 293 212 67 0 0 0 0 0 0 0 0 0 0 0 0 0 0 0 0 0 0 0 0 0 0 0 0 0 0 0 0
584 602 634 520 407 410 455 443 415 367 308 300 161 0 0 0 0 0 0 0 0 0 0 0 0 0 0 0 0 0 0 0 0 0 0 0 0 0 0 0 0 0
604 646 677 502 473 495 452 402 369 322 307 169 0 0 0 0 0 0 0 0 0 0 0 0 0 0 0 0 0 0 0 0 0 0 0 0 0 0 0 0 0 0
405 540 608 529 508 464 412 358 243 210 194 129 0 0 1 16 0 0 0 0 0 0 0 0 0 0 0 0 0 0 0 0 0 0 0 0 0 0 0 0 0 0
434 422 509 492 471 443 384 191 110 81 118 128 14 0 3 2 0 0 0 0 0 0 0 0 0 0 0 0 0 0 0 0 0 0 0 0 0 0 0 0 0 0
478 355 329 365 404 300 235 223 193 124 75 11 0 0 0 0 0 0 0 0 0 0 0 0 0 0 0 0 0 0 0 0 0 0 0 0 0 0 0 0 0 0
293 327 364 369 116 107 191 230 211 141 3 1 12 5 0 0 0 0 0 0 0 0 0 0 0 0 0 0 0 0 0 0 0 0 0 0 0 0 0 0 0 0
387 174 246 259 133 92 128 155 151 25 3 5 34 34 6 0 0 0 0 0 0 0 0 0 0 0 0 0 0 0 0 0 0 0 0 0 0 0 0 0 0 0
397 427 423 380 115 135 124 125 72 35 68 45 6 17 1 0 0 0 0 0 0 0 0 0 0 0 0 0 0 0 0 0 0 0 0 0 0 0 0 0 0 0
182 244 306 117 55 25 2 30 39 41 74 33 8 7 1 0 0 0 0 0 0 0 0 0 0 0 0 0 0 0 0 0 0 0 0 0 0 0 0 0 0 0
0 62 24 15 44 10 0 127 23 50 21 4 2 2 0 0 0 0 0 0 0 0 0 0 0 0 0 0 0 0 0 0 0 0 0 0 0 0 0 0 0 0
29 77 119 133 66 9 146 145 2 33 11 2 4 2 0 0 0 0 0 0 0 0 0 0 0 0 0 0 0 0 0 0 0 0 0 0 0 0 0 0 0 0
32 163 98 77 44 58 114 48 38 16 4 3 3 2 0 0 0 0 0 0 0 0 0 0 0 0 0 0 0 0 0 0 0 0 0 0 0 0 0 0 0 0
121 130 229 128 50 49 10 36 30 21 0 0 5 4 1 0 0 0 0 0 0 0 0 0 0 0 0 0 0 0 0 0 0 0 0 0 0 0 0 0 0 0
149 206 310 152 37 20 18 42 25 2 0 0 4 7 1 0 0 0 0 0 0 0 0 0 0 0 0 0 0 0 0 0 0 0 0 0 0 0 0 0 0 0
76 159 247 108 51 50 17 32 16 0 0 5 12 14 1 0 0 0 0 0 0 0 0 0 0 0 0 0 0 0 0 0 0 0 0 0 0 0 0 0 0 0

ECMWFNIL_con_mucape_105.txt.gz
CAPE
605 575 555 422 380 221 196 204 159 94 6 0 0 0 0 0 0 0 0 0 0 0 0 0 0 0 0 0 0 0 0 0 0 0 0 0 0 0 0 0 0 0
622 573 531 460 268 224 239 209 152 25 185 0 0 0 0 0 0 0 0 0 0 0 0 0 0 0 0 0 0 0 0 0 0 0 0 0 0 0 0 0 0 0
559 553 534 336 290 333 350 226 105 213 56 0 0 0 0 0 0 0 0 0 0 0 0 0 0 0 0 0 0 0 0 0 0 0 0 0 0 0 0 0 0 0
627 501 354 331 389 417 346 186 199 209 0 0 0 0 0 0 0 0 0 0 0 0 0 0 0 0 0 0 0 0 0 0 0 0 0 0 0 0 0 0 0 0
463 361 343 443 457 384 248 220 234 197 184 66 38 0 0 0 0 0 0 0 0 0 0 0 0 0 0 0 0 0 0 0 0 0 0 0 0 0 0 0 0 0
395 443 514 504 464 349 285 258 195 178 156 149 25 0 0 0 0 0 0 0 0 0 0 0 0 0 0 0 0 0 0 0 0 0 0 0 0 0 0 0 0 0
676 648 557 502 408 326 277 250 80 157 142 147 153 133 44 0 0 0 0 0 0 0 0 0 0 0 0 0 0 0 0 0 0 0 0 0 0 0 0 0 0 0
733 689 617 503 397 359 286 272 165 198 288 315 280 254 195 144 75 0 0 0 0 0 0 0 0 0 0 0 0 0 0 0 0 0 0 0 0 0 0 0 0 0
617 549 471 466 456 352 294 275 235 328 366 328 261 262 240 192 113 49 1 0 0 0 0 0 0 0 0 0 0 0 0 0 0 0 0 0 0 0 0 0 0 0
561 478 511 453 367 334 344 268 334 371 378 380 348 290 266 180 175 118 38 0 0 0 0 0 0 0 0 0 0 0 0 0 0 0 0 0 0 0 0 0 0 0
484 458 424 399 364 395 391 335 366 362 360 367 306 320 228 188 144 27 0 0 0 0 0 0 0 0 0 0 0 0 0 0 0 0 0 0 0 0 0 0 0 0
503 474 479 427 377 469 459 367 359 338 365 357 329 295 244 171 94 0 0 0 0 0 0 0 0 0 0 0 0 0 0 0 0 0 0 0 0 0 0 0 0 0
579 536 492 457 485 532 535 370 333 346 357 346 299 233 144 31 0 0 0 0 0 0 0 0 0 0 0 0 0 0 0 0 0 0 0 0 0 0 0 0 0 0
589 597 570 561 553 557 522 363 361 365 342 342 262 129 0 0 0 0 0 0 0 0 0 0 0 0 0 0 0 0 0 0 0 0 0 0 0 0 0 0 0 0
616 590 593 549 532 538 471 378 341 337 348 328 250 100 0 0 41 0 0 0 0 0 0 0 0 0 0 0 0 0 0 0 0 0 0 0 0 0 0 0 0 0
637 559 526 481 425 417 475 356 299 192 200 154 157 153 146 104 32 0 0 0 0 0 0 0 0 0 0 0 0 0 0 0 0 0 0 0 0 0 0 0 0 0
616 541 455 452 396 373 355 326 247 234 152 167 173 174 158 72 0 0 5 0 0 0 0 0 0 0 0 0 0 0 0 0 0 0 0 0 0 0 0 0 0 0
538 464 418 447 401 391 351 108 88 94 149 151 166 159 116 24 4 0 0 2 0 0 0 0 0 0 0 0 0 0 0 0 0 0 0 0 0 0 0 0 0 0
468 403 351 329 324 269 247 239 90 74 98 39 68 83 58 41 7 0 0 0 0 0 0 0 0 0 0 0 0 0 0 0 0 0 0 0 0 0 0 0 0 0
332 312 301 286 276 194 90 261 92 55 37 2 6 43 54 10 0 0 0 0 0 0 0 0 0 0 0 0 0 0 0 0 0 0 0 0 0 0 0 0 0 0
85 68 59 39 97 229 17 32 15 0 0 0 3 21 7 0 0 0 0 1 0 0 0 0 0 0 0 0 0 0 0 0 0 0 0 0 0 0 0 0 0 0
254 68 110 110 63 24 46 10 0 0 0 0 0 0 0 0 0 0 0 4 0 0 0 0 0 0 0 0 0 0 0 0 0 0 0 0 0 0 0 0 0 0
9 14 2 5 3 0 0 27 2 18 1 0 0 1 3 1 0 0 2 4 0 0 0 0 0 0 0 0 0 0 0 0 0 0 0 0 0 0 0 0 0 0
143 148 190 208 184 46 16 82 79 37 0 3 2 5 4 2 0 0 0 3 0 0 0 0 0 0 0 0 0 0 0 0 0 0 0 0 0 0 0 0 0 0
163 166 188 176 147 53 46 55 38 48 6 7 2 3 2 0 0 0 4 2 0 0 0 0 0 0 0 0 0 0 0 0 0 0 0 0 0 0 0 0 0 0
253 201 188 164 161 147 2 62 66 46 39 13 5 3 0 0 0 0 0 1 0 0 0 0 0 0 0 0 0 0 0 0 0 0 0 0 0 0 0 0 0 0

ECMWFNIL_con_mucape_108.txt.gz
CAPE
554 600 539 425 378 219 126 39 62 34 50 5 0 0 0 0 0 0 0 0 0 0 0 0 0 0 0 0 0 0 0 0 0 0 0 0 0 0 0 0 0 0
598 578 471 383 282 236 75 91 78 90 0 4 0 0 0 0 0 0 0 0 0 0 0 0 0 0 0 0 0 0 0 0 0 0 0 0 0 0 0 0 0 0
576 532 436 314 213 220 128 89 133 32 17 26 130 0 0 1 0 0 0 0 0 0 0 0 0 0 0 0 0 0 0 0 0 0 0 0 0 0 0 0 0 0
562 484 365 304 260 212 144 165 234 44 44 173 50 0 0 0 1 0 0 0 0 0 0 0 0 0 0 0 0 0 0 0 0 0 0 0 0 0 0 0 0 0
545 414 341 344 317 211 201 313 270 181 186 175 166 13 0 0 0 0 0 0 0 0 0 0 0 0 0 0 0 0 0 0 0 0 0 0 0 0 0 0 0 0
539 361 363 388 264 262 334 330 228 201 181 186 167 8 0 0 0 0 0 0 0 0 0 0 0 0 0 0 0 0 0 0 0 0 0 0 0 0 0 0 0 0
401 414 404 276 266 368 422 227 164 227 174 170 5 0 0 0 0 0 0 0 0 0 0 0 0 0 0 0 0 0 0 0 0 0 0 0 0 0 0 0 0 0
449 446 278 292 402 472 403 364 222 268 169 128 0 141 192 193 164 173 145 1 0 0 0 0 0 0 0 0 0 0 0 0 0 0 0 0 0 0 0 0 0 0
442 299 402 516 533 495 389 264 302 257 149 141 174 259 262 229 192 223 194 152 0 0 0 0 0 0 0 0 0 0 0 0 0 0 0 0 0 0 0 0 0 0
492 467 616 673 629 588 481 347 299 283 164 183 269 317 314 278 258 243 219 164 96 0 0 0 0 0 0 0 0 0 0 0 0 0 0 0 0 0 0 0 0 0
501 546 680 750 691 545 434 379 313 323 188 256 317 350 329 252 284 267 238 209 134 76 31 0 0 0 0 0 0 0 0 0 0 0 0 0 0 0 0 0 0 0
609 518 614 542 408 411 432 356 316 350 213 309 366 366 332 305 315 281 273 234 125 59 0 0 0 0 0 0 0 0 0 0 0 0 0 0 0 0 0 0 0 0
532 573 550 557 466 406 349 303 326 415 305 355 398 375 325 331 317 296 251 150 77 47 0 0 0 0 0 0 0 0 0 0 0 0 0 0 0 0 0 0 0 0
503 495 523 488 423 357 323 314 360 464 406 378 380 366 357 331 314 295 194 112 110 76 0 0 0 0 0 0 0 0 0 0 0 0 0 0 0 0 0 0 0 0
516 516 441 472 389 365 337 344 384 400 438 331 384 302 247 257 296 229 196 159 100 16 0 0 0 0 0 0 0 0 0 0 0 0 0 0 0 0 0 0 0 0
462 425 499 459 475 462 427 214 50 239 316 358 248 227 254 231 233 193 169 160 84 11 0 0 0 0 0 0 0 0 0 0 0 0 0 0 0 0 0 0 0 0
290 383 458 414 397 442 389 418 53 120 190 230 174 0 201 176 199 218 122 130 58 21 2 0 0 0 0 0 0 0 0 0 0 0 0 0 0 0 0 0 0 0
361 420 440 430 406 386 416 256 0 0 0 0 107 0 0 68 103 128 50 0 4 6 0 0 0 0 0 0 0 0 0 4 0 0 0 0 0 0 0 0 0 0
448 499 552 505 426 352 0 0 0 95 138 159 103 95 57 102 0 0 1 0 2 4 0 0 0 0 0 0 0 0 0 0 0 0 0 0 0 0 0 0 0 0
489 585 506 474 461 414 330 242 116 163 153 150 100 47 52 35 0 0 7 5 0 0 0 0 0 0 0 0 0 0 0 0 0 0 0 0 0 0 0 0 0 0
493 539 491 472 372 324 293 238 3 23 30 32 41 45 5 0 0 11 4 0 0 0 0 0 0 0 0 0 0 0 0 0 0 0 0 0 0 0 0 0 0 0
376 461 396 317 87 74 61 64 77 83 77 56 39 26 3 0 0 2 0 0 0 0 0 0 0 0 0 0 0 0 0 0 0 0 0 0 0 0 0 0 0 0
292 359 349 323 75 91 78 73 83 83 92 57 4 0 4 0 0 0 0 0 0 0 0 0 0 0 0 0 0 0 0 0 0 0 0 0 0 0 0 0 0 0
346 305 252 257 66 80 85 32 0 19 81 58 0 23 44 18 0 0 0 0 0 0 0 0 0 0 0 0 0 0 0 0 0 0 0 0 0 0 0 0 0 0
484 424 360 293 274 108 62 10 70 162 205 127 27 20 48 30 0 4 0 2 0 0 0 0 0 0 0 0 0 0 0 0 0 0 0 0 0 0 0 0 0 0
466 421 310 276 260 72 70 148 228 226 175 124 44 21 69 43 0 0 2 3 2 0 0 0 0 0 0 0 0 0 0 0 0 0 0 0 0 0 0 0 0 0

ECMWFNIL_con_mucape_111.txt.gz
CAPE
1064 918 634 423 421 262 123 94 30 2 4 7 5 1 4 5 1 3 3 0 0 0 0 0 0 0 0 0 0 0 0 0 0 0 0 0 0 0 0 0 0 0
749 675 539 433 350 104 143 118 26 3 8 11 5 4 2 1 4 2 1 0 0 0 0 0 0 0 0 0 0 0 0 0 0 0 0 0 0 0 0 0 0 0
617 675 736 449 335 200 286 60 28 34 4 3 1 2 3 0 3 0 0 0 0 0 0 0 0 0 0 0 0 0 0 0 0 0 0 0 0 0 0 0 0 0
696 584 595 371 316 180 188 42 14 19 4 0 0 7 2 0 0 1 0 0 0 0 0 0 0 0 0 0 0 0 0 0 0 0 0 0 0 0 0 0 0 0
711 630 499 395 327 116 26 22 18 31 95 3 0 0 0 0 0 0 0 0 0 0 0 0 0 0 0 0 0 0 0 0 0 0 0 0 0 0 0 0 0 0
773 666 492 382 293 183 24 85 70 120 137 127 0 0 0 0 0 0 0 0 0 0 0 0 0 0 0 0 0 0 0 0 0 0 0 0 0 0 0 0 0 0
797 691 463 430 318 227 193 130 126 220 206 149 0 0 0 0 0 0 0 0 0 0 0 0 0 0 0 0 0 0 0 0 0 0 0 0 0 0 0 0 0 0
789 606 551 405 311 274 240 142 227 240 224 160 0 0 0 0 0 0 0 0 0 0 0 0 0 0 0 0 0 0 0 0 0 0 0 0 0 0 0 0 0 0
733 589 538 390 341 296 187 201 295 304 226 228 92 0 0 0 0 0 0 0 0 0 0 0 0 0 0 0 0 0 0 0 0 0 0 0 0 0 0 0 0 0
697 615 458 373 290 259 222 262 310 337 240 226 0 0 0 0 0 8 214 14 0 146 182 135 121 6 0 0 0 0 0 0 0 0 0 0 0 0 0 0 0 0
695 502 437 331 288 262 344 388 381 350 258 256 0 0 0 0 0 258 252 192 155 205 184 172 158 102 0 0 0 0 0 0 0 0 0 0 0 0 0 0 0 0
774 484 366 294 324 400 472 480 404 362 353 281 0 0 0 0 43 295 265 232 224 217 215 196 133 30 0 0 0 0 0 0 0 0 0 0 0 0 0 0 0 0
752 534 372 408 506 536 540 516 446 423 326 285 215 0 0 13 287 303 298 296 254 234 221 189 112 77 0 0 0 0 0 0 0 0 0 0 0 0 0 0 0 0
735 628 503 493 611 641 656 585 460 377 305 294 312 290 0 14 290 316 341 328 278 237 200 147 113 56 0 0 0 0 0 0 0 0 0 0 0 0 0 0 0 0
796 712 504 472 617 661 618 452 389 384 352 318 342 370 281 212 282 385 343 249 287 294 242 187 153 119 12 0 0 0 0 0 0 0 0 0 0 0 0 0 0 0
786 687 552 471 492 440 438 384 457 470 395 323 347 398 458 195 229 216 290 189 171 186 203 154 39 33 0 0 0 5 0 0 0 0 0 0 0 0 0 0 0 0
631 484 415 382 456 433 500 450 463 509 377 358 358 372 372 300 0 0 24 0 0 0 0 0 1 0 0 0 0 0 0 0 0 0 0 0 0 0 0 0 0 0
773 579 428 348 391 459 425 348 486 326 276 117 135 99 205 211 176 63 13 12 58 39 11 0 0 0 0 0 0 0 0 0 0 0 0 0 0 0 0 0 0 0
807 652 469 442 487 402 336 359 336 206 223 219 183 0 0 8 10 151 129 79 45 0 0 0 0 0 0 0 0 0 0 0 0 0 0 0 0 0 0 0 0 0
616 482 396 430 400 378 317 369 426 386 231 220 222 204 166 153 169 151 78 44 28 10 0 0 0 0 0 0 0 0 0 0 0 0 0 0 0 0 0 0 0 0
392 345 371 367 348 375 382 414 399 320 268 204 108 240 218 74 68 63 75 59 33 0 0 0 0 0 0 0 0 0 0 0 0 0 0 0 0 0 0 0 0 0
381 351 330 359 475 475 468 465 394 367 355 364 273 241 0 0 0 118 93 34 5 0 0 0 0 0 0 0 0 0 0 0 0 0 0 0 0 0 0 0 0 0
305 291 320 399 538 529 466 374 307 336 335 243 112 209 32 75 18 0 0 0 1 0 0 1 0 0 0 0 0 0 0 0 0 0 0 0 0 0 0 0 0 0
392 400 366 415 490 508 443 367 328 312 342 300 170 153 95 2 15 24 0 1 0 0 0 0 0 0 0 0 0 0 0 0 0 0 0 0 0 0 0 0 0 0
523 542 562 486 406 453 510 450 370 325 305 262 202 148 71 65 70 49 6 0 3 2 0 0 0 0 0 0 0 0 0 0 0 0 0 0 0 0 0 0 0 0
645 620 605 534 420 380 412 371 326 296 239 152 186 121 42 50 110 12 0 0 57 1 1 0 0 0 0 0 0 0 0 0 0 0 0 0 0 0 0 0 0 0

ECMWFNIL_con_mucape_114.txt.gz
CAPE
932 730 546 448 442 429 398 192 61 45 37 27 5 2 3 7 2 1 1 0 0 0 0 0 0 0 0 0 0 0 0 0 0 0 0 0 0 0 0 0 0 0
893 831 549 559 514 498 342 120 54 26 52 54 11 5 5 2 1 1 0 0 0 0 0 0 0 0 0 0 0 0 0 0 0 0 0 0 0 0 0 0 0 0
1038 960 617 587 545 437 274 126 99 60 78 69 6 3 10 0 0 0 0 0 0 0 0 0 0 0 0 0 0 0 0 0 0 0 0 0 0 0 0 0 0 0
1212 952 643 598 537 407 311 207 124 106 112 30 6 1 3 0 0 0 0 0 0 0 0 0 0 0 0 0 0 0 0 0 0 0 0 0 0 0 0 0 0 0
1062 752 691 576 490 418 387 261 146 108 5 0 2 3 1 0 0 0 1 0 0 0 0 0 0 0 0 0 0 0 0 0 0 0 0 0 0 0 0 0 0 0
967 726 636 521 508 510 481 302 124 14 0 0 0 0 0 0 0 0 0 0 0 0 0 0 0 0 0 0 0 0 0 0 0 0 0 0 0 0 0 0 0 0
800 685 638 614 606 550 483 309 41 0 0 3 0 0 0 0 1 0 0 0 0 0 0 0 0 0 0 0 0 0 0 0 0 0 0 0 0 0 0 0 0 0
816 773 727 714 689 531 542 381 0 0 21 23 6 0 0 0 0 0 0 0 0 0 0 0 0 0 0 0 0 0 0 0 0 0 0 0 0 0 0 0 0 0
897 845 794 734 690 612 556 300 0 4 32 28 7 0 0 0 0 0 0 0 0 0 0 0 0 0 0 0 0 0 0 0 0 0 0 0 0 0 0 0 0 0
937 850 732 672 672 696 578 287 21 77 50 89 26 1 199 0 0 0 0 0 0 0 0 0 0 0 0 0 113 122 102 0 0 0 0 0 0 0 0 0 0 0
863 842 786 732 748 659 486 242 204 124 96 107 37 40 239 0 0 0 0 0 0 0 0 0 0 0 97 104 137 140 91 0 0 0 0 0 0 0 0 0 0 0
862 833 798 781 747 622 408 275 216 140 130 98 77 274 270 0 0 0 0 0 0 0 0 229 200 191 184 155 160 134 60 0 0 0 0 0 0 0 0 0 0 0
822 852 830 764 726 595 418 314 210 148 159 136 157 290 293 254 0 0 0 0 0 0 257 250 260 247 219 198 181 150 74 0 0 0 0 0 0 0 0 0 0 0
898 952 923 844 729 594 421 328 204 189 227 224 238 323 330 278 0 0 0 0 0 156 252 280 313 272 196 171 150 80 0 12 4 0 0 0 0 0 0 0 0 0
1026 1017 983 874 755 612 435 309 238 265 288 268 170 298 354 348 297 21 0 0 0 0 0 209 168 61 0 7 34 39 2 0 0 0 0 0 0 0 0 0 0 0
1094 1087 1039 894 766 643 481 340 292 302 327 272 270 108 318 339 324 296 298 221 0 0 0 75 0 0 0 0 0 0 0 0 0 0 0 0 0 0 0 0 0 0
1116 1137 1037 871 750 663 541 392 358 379 382 389 328 344 378 346 343 241 0 0 23 57 53 0 0 0 0 0 0 0 0 0 0 0 0 0 0 0 0 0 0 0
1096 1141 1027 913 837 728 648 484 449 388 413 362 303 432 478 393 342 297 267 243 103 0 83 0 0 0 0 0 0 0 0 0 0 0 0 0 0 0 0 0 0 0
1093 1150 1045 999 969 898 780 587 432 389 360 271 328 464 441 350 268 225 215 64 0 56 53 0 0 0 0 0 0 0 0 0 0 0 0 0 0 0 0 0 0 0
1129 1077 1040 1015 1011 954 838 646 472 392 316 315 332 317 270 245 241 250 210 178 103 121 56 0 0 0 0 0 0 0 0 0 0 0 0 0 0 0 0 0 0 0
1074 1022 970 948 920 785 629 472 366 353 344 390 362 322 326 325 310 226 190 41 0 0 94 70 20 0 0 0 0 0 0 0 0 0 0 0 0 0 0 0 0 0
1059 1069 960 900 781 622 424 344 368 412 392 431 417 400 432 396 330 265 172 141 114 112 27 0 0 0 0 0 0 0 0 0 0 0 0 0 0 0 0 0 0 0
1070 1074 935 892 768 649 494 435 429 393 326 410 460 443 359 301 169 154 175 68 128 39 0 0 0 0 0 0 0 0 0 0 0 0 0 0 0 0 0 0 0 0
1115 1091 942 913 842 764 603 457 436 416 419 463 403 162 204 227 181 110 98 175 118 57 23 0 0 0 0 0 0 0 0 0 0 0 0 0 0 0 0 0 0 0
1101 955 673 650 716 627 465 405 388 475 424 431 442 322 203 148 117 147 185 155 71 52 46 3 2 2 6 0 0 0 0 0 0 0 0 0 0 0 0 0 0 0
942 589 434 337 208 376 374 418 439 469 441 438 420 387 224 200 137 84 129 172 125 69 44 0 14 30 22 0 0 0 0 0 0 0 0 0 0 0 0 0 0 0

ECMWFNIL_con_mucape_117.txt.gz
CAPE
976 806 625 614 505 440 412 385 170 0 0 0 0 0 0 0 0 0 0 0 0 0 0 0 0 0 0 0 0 0 0 0 0 0 0 0 0 0 0 0 0 0
996 829 743 616 573 531 550 484 338 275 264 0 0 0 0 0 0 0 0 0 0 0 0 0 0 0 0 0 0 0 0 0 0 0 0 0 0 0 0 0 0 0
1005 841 764 678 640 632 592 464 366 332 270 55 0 5 0 0 0 0 0 0 0 0 0 0 0 0 0 0 0 0 0 0 0 0 0 0 0 0 0 0 0 0
1086 920 824 740 677 632 542 441 429 398 281 0 0 0 0 0 0 0 0 0 0 0 0 0 0 0 0 0 0 0 0 0 0 0 0 0 0 0 0 0 0 0
1131 1014 899 826 764 661 520 480 498 445 301 0 0 0 0 0 0 0 0 0 0 0 0 0 0 0 0 0 0 0 0 0 0 0 0 0 0 0 0 0 0 0
1142 1036 965 920 800 623 538 537 507 444 323 0 0 0 0 0 0 0 0 0 0 0 0 0 0 0 0 0 0 0 0 0 0 0 0 0 0 0 0 0 0 0
1128 1055 988 906 728 604 595 552 473 418 323 261 222 0 0 0 0 0 0 0 0 0 0 0 0 0 0 0 0 0 0 0 0 0 0 0 0 0 0 0 0 0
1169 1037 964 867 685 644 631 577 443 408 367 328 239 0 0 0 0 0 0 0 0 0 0 0 0 0 0 0 0 0 0 0 0 0 0 0 0 0 0 0 0 0
1129 1040 965 820 697 647 562 543 454 470 423 355 224 0 0 0 0 0 0 0 0 0 0 0 0 0 0 0 0 0 0 0 0 0 0 0 0 0 0 0 0 0
1100 1037 928 814 724 602 470 471 490 529 457 396 255 0 0 0 0 0 0 0 0 0 0 0 0 0 0 0 0 0 0 0 0 0 0 0 0 0 0 0 0 0
1120 1029 894 805 670 557 487 490 571 550 548 503 298 0 0 0 0 0 0 190 0 0 0 0 0 0 0 0 0 0 0 0 97 86 0 0 0 0 0 0 0 0
1118 983 862 752 714 668 616 637 645 652 660 588 377 0 0 0 0 0 185 227 0 0 0 0 0 0 0 0 37 125 227 233 174 0 9 50 61 35 9 0 0 0
1150 1042 911 852 820 774 730 741 740 713 694 627 371 0 0 0 0 205 263 244 47 0 0 0 0 0 0 210 62 190 55 0 0 4 50 69 16 4 0 0 0 0
1234 1097 989 942 908 843 790 812 743 709 670 526 318 152 0 0 0 240 296 283 243 0 0 0 0 0 0 0 0 0 0 0 6 4 14 0 0 0 0 0 0 0
1292 1198 1051 961 963 894 858 782 734 675 646 555 327 92 0 0 0 230 304 308 297 89 0 0 0 0 0 0 0 0 0 0 0 0 0 0 0 0 0 0 0 0
1270 1220 1103 988 945 912 942 850 826 780 710 609 364 221 186 88 0 270 317 339 340 290 257 0 0 0 0 0 0 0 0 0 0 0 0 0 0 0 0 0 0 0
1340 1175 1028 981 898 922 905 917 922 865 747 627 416 258 173 202 0 204 304 353 362 287 218 201 223 246 213 0 0 0 0 0 0 0 0 0 0 0 0 0 0 0
1290 1144 1142 1039 977 954 1007 1032 984 892 798 707 524 324 250 237 202 254 330 355 321 302 307 278 234 182 0 0 0 0 0 0 0 0 0 0 0 0 0 0 0 0
1290 1156 1205 1132 1032 1043 1106 1109 1028 947 833 714 556 408 318 277 234 351 423 412 322 299 265 236 211 163 16 0 0 0 2 6 0 0 0 0 0 0 0 0 0 0
1373 1143 1224 1172 1110 1132 1143 1118 1028 958 856 753 622 455 350 285 307 392 451 398 294 234 257 231 192 174 157 75 46 23 19 0 0 0 0 0 0 0 0 0 0 0
1407 1217 1212 1127 1080 1100 1116 1143 1023 911 848 821 782 619 401 327 295 388 357 291 273 284 230 160 205 192 56 69 4 0 0 0 0 0 0 0 0 0 0 0 0 0
1435 1206 1193 1161 1153 1080 1068 1016 928 812 768 810 844 698 456 331 280 276 287 308 321 323 168 174 190 146 48 0 0 0 0 0 0 0 0 0 0 0 0 0 0 0
1454 1242 1151 1167 1132 1065 1075 981 890 811 790 819 809 672 459 344 313 288 319 358 359 343 108 145 132 116 72 6 0 0 0 0 0 0 0 0 0 0 0 0 0 0
1446 1258 1110 1132 1093 1069 1099 1017 952 851 769 680 554 435 337 316 367 355 395 382 330 163 162 125 134 112 73 10 0 7 8 2 0 0 0 0 0 0 0 0 0 0
1416 1212 1130 1032 803 1013 1062 1010 901 823 625 382 262 259 299 376 416 408 385 363 271 180 265 121 92 70 74 37 17 10 6 5 1 0 0 0 0 0 0 0 0 0
1384 1228 1159 1009 919 979 968 987 891 685 579 389 366 433 421 380 447 369 268 174 197 134 92 18 7 14 14 100 14 3 18 28 16 1 0 0 0 0 0 0 0 0

ECMWFNIL_con_mucape_120.txt.gz
CAPE
1379 1335 1305 1286 1228 1096 754 583 632 446 0 0 0 0 0 0 0 0 0 0 0 0 0 0 0 0 0 0 0 0 0 0 0 0 0 0 0 0 0 0 0 0
1390 1369 1339 1269 1177 1043 772 635 629 184 0 0 0 0 0 0 0 0 0 0 0 0 0 0 0 0 0 0 0 0 0 0 0 0 0 0 0 0 0 0 0 0
1325 1261 1258 1134 970 896 784 696 547 124 55 304 283 0 0 282 286 0 0 0 0 0 0 0 0 0 0 0 0 0 0 0 0 0 0 0 0 0 0 0 0 0
1363 1277 1156 968 824 843 774 735 494 431 463 429 370 301 58 283 0 60 0 0 0 0 0 0 0 0 0 0 0 0 0 0 0 0 0 0 0 0 0 0 0 0
1260 1208 1105 943 851 839 786 805 589 545 552 518 415 345 315 231 56 0 0 0 0 0 0 0 0 0 0 0 0 0 0 0 0 0 0 0 0 0 0 0 0 0
1322 1199 1094 950 905 845 854 884 701 682 635 549 479 421 375 302 0 0 0 0 0 0 0 0 0 0 0 0 0 0 0 0 0 0 0 0 0 0 0 0 0 0
1211 1115 1051 1064 1025 933 946 939 788 761 672 581 524 508 460 319 0 0 0 0 0 0 0 0 0 0 0 0 0 0 0 0 0 0 0 0 0 0 0 0 0 0
1291 1211 1140 1110 1074 1017 1013 932 871 806 709 608 575 579 530 369 0 0 0 0 0 0 0 0 0 0 0 0 0 0 0 0 0 0 0 0 0 0 0 0 0 66
1332 1252 1189 1159 1121 1053 1031 968 919 856 740 631 577 579 461 385 332 4 0 0 0 0 0 0 0 0 0 0 0 0 0 0 0 0 62 129 63 141 144 111 85 70
1370 1294 1239 1232 1230 1154 1047 978 911 846 724 630 584 527 427 404 373 7 0 0 0 0 0 0 0 0 0 0 0 0 0 0 177 186 188 204 139 176 142 71 41 42
1400 1343 1331 1375 1342 1161 1055 961 838 782 706 638 564 484 464 459 369 0 0 0 0 0 0 0 0 0 0 0 0 0 0 199 227 231 0 202 40 112 64 26 31 42
1417 1388 1419 1436 1364 1147 1067 990 815 771 704 612 549 521 512 511 406 13 0 0 0 0 0 0 0 0 0 0 0 0 119 215 185 191 0 0 75 97 60 34 0 0
1434 1449 1467 1498 1375 1159 1074 982 764 706 675 552 536 529 585 618 531 201 0 0 0 0 211 197 0 0 0 0 0 0 0 0 0 0 0 0 24 16 4 0 0 0
1429 1486 1518 1480 1352 1167 1036 873 710 624 628 521 541 610 690 697 659 315 0 0 0 149 237 233 102 0 0 0 0 0 0 0 0 0 48 35 0 0 0 0 0 0
1407 1452 1480 1434 1346 1194 1002 836 672 620 696 648 628 670 705 705 635 306 207 189 50 226 277 276 238 0 0 0 0 0 0 0 220 0 0 0 0 0 0 0 0 0
1438 1432 1449 1460 1360 1199 993 814 621 738 795 719 701 740 718 679 626 313 219 199 91 147 276 302 304 180 0 0 0 0 88 248 0 0 0 29 12 0 0 0 0 0
1442 1450 1424 1425 1353 1185 1043 858 714 840 832 745 731 729 754 746 672 374 225 206 276 239 291 333 354 306 270 214 233 275 270 225 0 0 22 58 29 0 0 0 0 0
1468 1445 1448 1426 1330 1124 1063 950 776 879 838 806 813 824 835 864 804 426 248 207 210 249 321 373 374 299 299 308 299 261 204 96 0 16 54 56 26 0 0 0 0 0
1462 1439 1416 1353 1221 1135 1094 1028 792 836 846 843 852 881 919 932 803 467 296 245 238 243 346 387 368 352 344 283 267 234 202 193 111 5 41 42 5 0 0 0 0 0
1456 1402 1353 1250 1137 1063 983 1025 944 902 871 857 906 948 996 964 799 568 396 334 289 335 402 418 373 339 296 260 254 236 202 0 27 10 11 10 0 0 0 0 0 0
1516 1475 1457 1389 1164 1013 1041 1055 889 864 896 894 944 1016 1053 908 796 649 510 386 345 436 470 410 330 288 88 240 241 178 127 17 12 0 0 0 0 0 0 0 0 0
1661 1678 1661 1578 1303 952 927 961 853 802 904 948 1026 1039 918 806 764 720 647 445 365 458 459 374 306 287 85 128 179 176 171 158 89 7 0 0 0 0 0 0 0 0
1637 1609 1654 1637 1362 1244 1008 924 814 692 904 1010 1040 952 780 696 654 661 642 536 393 387 360 323 348 309 261 188 173 166 122 101 97 19 0 0 0 0 0 0 0 0
1574 1571 1538 1457 1387 1097 932 904 771 696 838 977 860 743 697 698 610 615 563 561 420 337 316 144 304 330 176 178 120 85 65 40 43 35 0 0 0 0 0 0 0 0
1618 1526 1500 1482 1493 1109 909 862 756 789 934 879 797 721 737 726 680 514 435 358 319 300 291 170 155 106 94 89 43 101 69 49 28 40 43 0 0 0 0 0 0 0
1679 1576 1381 1375 1187 836 792 799 650 779 951 886 907 874 915 779 474 367 210 245 380 398 404 370 238 172 58 36 81 75 31 8 8 8 42 17 2 3 3 0 0 0

ECMWFNIL_con_mucape_123.txt.gz
CAPE
1166 1150 1123 1079 1055 1047 1072 1088 1026 1018 972 890 731 670 729 677 546 440 386 339 0 0 77 94 0 0 0 0 0 0 0 0 0 0 0 0 0 0 0 0 0 0
1268 1224 1164 1106 1076 1052 1069 1112 1146 1063 1051 956 722 672 736 657 544 437 328 0 0 216 255 128 0 0 0 0 0 0 0 0 0 0 0 0 0 0 0 0 0 0
1347 1306 1233 1204 1197 1205 1228 1260 1283 1232 1138 967 852 842 769 622 511 400 0 0 52 313 294 137 0 0 0 0 0 0 0 0 0 0 0 0 0 0 0 0 0 0
1395 1344 1305 1306 1298 1320 1328 1343 1314 1208 1145 964 833 767 604 502 411 327 0 0 328 349 296 131 0 0 0 0 0 0 0 0 0 0 0 0 0 0 0 0 0 0
1409 1376 1360 1379 1372 1359 1407 1417 1363 1210 1148 1056 843 632 458 375 343 351 323 343 365 364 279 0 0 0 0 0 0 0 0 0 0 0 0 0 0 0 0 0 0 0
1436 1415 1418 1444 1455 1431 1439 1473 1425 1340 1233 1116 934 612 423 408 460 410 380 370 351 266 14 0 0 0 0 0 0 0 0 0 0 0 0 0 0 0 0 0 0 2
1446 1424 1458 1516 1534 1484 1458 1469 1455 1336 1189 1091 908 616 460 499 506 462 434 410 0 0 0 0 0 0 0 0 0 0 0 0 0 0 0 0 0 0 0 0 6 74
1463 1442 1469 1512 1520 1490 1491 1455 1424 1293 1098 1005 749 640 543 584 544 526 532 463 4 0 0 0 0 0 0 0 0 0 0 0 0 0 0 0 0 0 28 0 70 94
1568 1485 1453 1436 1422 1422 1466 1463 1393 1232 1017 930 784 708 678 650 601 578 595 542 22 0 0 0 0 0 0 0 0 0 0 0 0 0 0 0 4 32 45 29 49 76
1642 1585 1478 1385 1333 1345 1354 1396 1393 1158 970 891 792 776 782 715 634 616 619 527 354 0 0 0 0 0 0 0 0 0 0 0 0 0 0 40 53 44 33 0 0 10
1698 1672 1658 1486 1329 1270 1401 1404 1332 1094 954 921 877 913 840 735 674 627 583 448 394 49 0 0 0 0 0 0 0 0 0 0 0 0 0 10 7 0 0 0 0 17
1760 1751 1762 1707 1474 1338 1223 1241 1219 1030 983 1008 1035 1010 847 763 680 602 499 441 389 0 0 0 0 0 0 0 0 0 0 0 0 0 0 0 0 0 0 1 56 51
1790 1815 1834 1837 1711 1434 1172 1184 1181 1071 1086 1101 1094 998 857 764 688 540 442 463 368 0 0 0 0 0 0 0 0 0 0 0 0 0 0 0 0 0 21 83 54 16
1798 1884 1985 1961 1849 1565 1179 1229 1236 1208 1182 1157 1081 910 808 768 689 510 469 509 443 101 0 0 0 0 0 0 0 0 0 0 0 0 0 0 0 0 57 29 13 3
1821 1910 1935 1919 1834 1670 1282 1306 1314 1291 1269 1189 971 906 767 739 615 475 497 586 558 315 0 0 0 0 172 0 0 0 0 0 0 0 0 0 10 61 60 31 13 0
1811 1778 1856 1936 1881 1701 1299 1314 1408 1399 1418 1301 943 882 682 731 574 521 560 653 614 357 0 0 0 0 226 204 0 0 0 0 0 0 0 8 76 104 86 53 26 10
1843 1822 1828 1920 1927 1814 1600 1357 1410 1416 1402 1368 1048 848 606 648 556 544 602 647 590 320 0 0 0 36 224 260 224 204 0 0 6 86 173 86 124 88 67 62 37 15
1835 1805 1836 1882 1866 1840 1687 1332 1406 1487 1520 1415 1078 829 584 600 656 665 675 680 548 302 90 73 0 0 198 256 301 281 260 151 256 241 74 127 125 23 11 33 20 3
1816 1794 1862 1906 1870 1809 1661 1276 1337 1452 1550 1319 1069 748 539 638 619 363 666 720 593 367 201 144 118 0 164 250 328 351 314 314 268 40 149 124 36 5 19 22 11 0
1742 1781 1858 1854 1819 1757 1597 1332 1315 1394 1490 1384 1096 746 574 634 595 342 511 707 621 394 254 168 147 156 184 272 342 352 359 153 114 88 90 69 45 18 5 10 8 0
1730 1821 1829 1742 1620 1544 1428 1376 1422 1459 1380 1275 1095 769 594 733 762 634 568 727 630 446 305 214 186 189 231 304 367 386 267 108 66 77 94 63 75 55 14 4 0 0
1644 1645 1627 1572 1530 1542 1460 1431 1429 1410 1456 1277 1050 719 642 754 820 603 579 594 554 522 425 343 268 230 283 352 395 346 267 55 77 113 88 57 64 73 32 10 0 0
1486 1428 1452 1547 1600 1596 1518 1398 1326 1356 1395 1228 1005 781 693 772 793 711 491 532 563 536 470 406 321 280 337 359 380 112 62 58 52 55 71 79 76 78 44 24 0 0
1399 1402 1426 1493 1565 1588 1579 1407 1164 990 1194 1195 1023 842 873 900 480 722 597 567 542 450 462 461 378 342 351 319 92 108 84 52 79 112 53 27 26 37 28 21 0 0
1398 1380 1412 1424 1487 1614 1648 1506 1252 1053 974 921 822 784 858 584 473 508 478 474 500 500 461 407 368 364 340 214 96 92 98 57 75 86 32 18 11 7 3 6 2 0
1398 1325 1344 1541 1660 1652 1611 1518 1463 1226 1097 996 772 629 671 634 608 338 548 594 606 571 488 371 260 174 125 66 105 78 35 156 66 21 47 18 3 1 1 0 0 0

ECMWFNIL_con_mucape_129.txt.gz
CAPE
1925 1912 2034 1811 1627 1548 1602 1514 1401 1275 1178 1125 954 978 1088 1165 1266 1202 1144 1066 921 751 630 586 577 576 553 478 376 38 0 0 0 0 0 0 0 0 0 0 0 0
1945 2116 1934 1721 1561 1506 1594 1605 1436 1456 1337 1328 1226 1190 995 1175 1223 1182 1148 1059 896 759 677 647 642 624 563 471 325 141 0 0 0 0 0 0 0 0 0 0 0 0
2106 2105 2004 1869 1641 1505 1588 1466 1440 1416 1589 1290 1143 1028 1062 1158 1186 1133 1119 1001 761 784 726 698 684 663 582 443 302 273 88 0 0 0 0 0 0 0 0 0 0 0
2178 2128 2020 1898 1637 1491 1460 1462 1499 1625 1562 1342 1172 1099 1078 1133 1189 1044 1114 1004 778 808 797 746 758 694 608 464 307 296 259 0 0 0 0 0 0 0 0 0 0 0
2200 2100 1996 1777 1538 1452 1416 1445 1515 1534 1509 1400 1191 1113 1100 1112 1154 1154 1162 1082 808 768 798 785 765 717 582 442 308 324 266 0 0 0 0 0 0 0 0 0 0 0
2088 2066 1952 1624 1639 1438 1420 1460 1488 1524 1535 1431 1198 1067 1136 1140 1178 1078 1197 1108 861 803 802 796 792 696 558 406 326 337 258 0 0 0 0 0 0 0 0 0 0 0
2112 2011 1832 1571 1515 1422 1432 1431 1475 1524 1537 1424 1182 1129 1139 1145 1163 1190 1247 1182 923 804 794 830 773 650 499 352 313 244 0 0 0 0 0 0 0 0 0 0 0 0
2036 1929 1756 1665 1539 1408 1417 1402 1448 1523 1536 1415 1205 1199 1152 1146 1120 1266 1297 1186 938 714 835 825 703 544 408 350 273 135 0 0 0 0 0 0 0 0 0 0 0 0
1869 1900 1842 1758 1632 1434 1410 1394 1404 1522 1526 1407 1298 1238 1187 1167 1103 1318 1340 1176 933 804 850 775 624 495 427 351 202 0 0 0 0 0 0 0 0 0 0 0 0 0
1713 1776 1827 1846 1767 1530 1402 1382 1419 1518 1510 1388 1378 1251 1197 1168 1151 1336 1364 1183 998 844 837 713 586 559 490 357 115 22 0 0 0 0 0 0 0 0 0 0 0 0
1784 1668 1803 1900 1862 1601 1444 1383 1425 1484 1477 1474 1421 1232 1204 1183 1289 1383 1390 1206 1047 870 805 643 573 549 564 490 191 27 0 0 0 0 0 0 0 0 0 0 0 0
1698 1652 1776 1866 1856 1701 1482 1458 1450 1465 1469 1490 1436 1233 1198 1194 1376 1413 1352 1192 1078 855 732 606 504 506 588 555 352 16 0 0 0 0 0 0 0 0 0 0 0 0
1628 1668 1790 1818 1822 1747 1559 1486 1516 1519 1507 1508 1411 1240 1220 1267 1419 1385 1290 1198 1078 875 772 694 551 513 638 617 397 173 0 0 0 0 0 0 0 0 0 0 0 0
1651 1694 1720 1776 1764 1758 1624 1566 1535 1537 1570 1519 1393 1272 1279 1374 1444 1312 1156 1243 1081 868 745 658 565 593 647 562 374 213 0 0 0 0 0 0 0 0 0 0 0 0
1659 1697 1687 1713 1746 1772 1670 1588 1555 1566 1607 1522 1314 1308 1316 1432 1470 1270 1314 1241 1043 817 675 614 632 666 576 454 370 215 0 0 0 0 0 0 0 0 0 0 0 0
1638 1658 1679 1691 1773 1721 1720 1616 1574 1612 1634 1434 1260 1328 1413 1477 1486 1414 1343 1225 1012 787 688 618 621 588 501 396 359 138 0 0 0 0 0 0 0 0 0 0 0 0
1561 1588 1639 1643 1694 1745 1697 1623 1561 1612 1654 1279 1191 1307 1460 1497 1433 1354 1267 1149 981 817 716 678 610 476 452 412 362 217 0 0 0 0 0 0 0 0 0 0 0 0
1460 1551 1576 1591 1636 1688 1664 1579 1546 1658 1684 1365 1258 1368 1413 1424 1412 1296 1254 1094 949 859 825 816 702 473 407 432 446 369 203 0 0 65 0 0 0 0 0 0 0 0
1443 1458 1502 1459 1502 1591 1658 1589 1558 1661 1684 1436 1327 1362 1292 1242 1269 1248 1156 1064 940 924 938 810 658 498 415 456 530 525 308 181 158 130 0 0 0 0 0 0 9 11
1432 1435 1441 1430 1346 1467 1619 1598 1589 1666 1686 1440 1396 1361 1206 1186 1179 1111 1154 1060 944 957 938 770 602 450 414 440 496 538 409 204 185 158 0 0 79 147 94 167 185 154
1469 1462 1492 1444 1390 1334 1463 1589 1614 1618 1643 1402 1408 1349 1257 1170 1083 1160 1142 1041 931 988 908 768 561 438 416 448 482 538 492 251 204 170 0 0 150 151 151 183 20 28
1511 1515 1506 1461 1419 1394 1368 1438 1490 1469 1400 1199 1422 1484 1369 1238 1149 1000 991 952 926 971 910 711 524 464 474 490 516 579 519 324 206 133 0 0 37 131 162 187 73 31
1583 1579 1535 1508 1476 1456 1442 1451 1462 1365 1088 1012 1199 1399 1494 1394 1215 1060 880 885 894 941 845 660 589 486 453 478 497 502 482 378 251 185 116 6 16 19 189 188 32 48
1647 1630 1602 1557 1528 1500 1497 1501 1484 1362 1125 1018 1056 1137 1518 1520 1373 1154 815 794 864 980 1047 910 725 508 436 472 497 436 434 416 323 224 150 3 5 182 216 187 47 41
1698 1696 1675 1619 1574 1556 1533 1534 1534 1466 1192 915 970 1192 1395 1435 1476 1287 1074 956 811 910 608 510 502 362 296 335 448 461 489 464 360 263 197 199 203 207 196 55 53 54
1751 1755 1726 1666 1631 1602 1581 1527 1491 1492 1445 975 784 1085 1459 1612 1131 1046 1215 1148 1020 848 828 587 423 329 287 292 320 391 471 458 378 304 270 234 170 24 30 29 23 40

ECMWFNIL_con_mucape_132.txt.gz
CAPE
3140 3110 2930 2686 2567 2160 2388 2437 2295 2403 2481 2222 2108 2021 1814 1812 1659 1871 1784 1850 2164 2270 1951 1716 1439 1307 1198 1094 1078 965 778 774 595 452 373 449 545 524 585 676 686 635
3218 3313 3033 2969 2774 2355 2242 2570 2457 2183 2454 2375 2073 2004 1660 1649 1880 1853 1934 1914 2122 2121 1879 1582 1372 1244 1174 1024 964 800 650 425 353 280 315 180 206 270 416 482 556 462
3293 3263 3273 3134 2950 2696 2602 2588 2577 2353 2350 2233 1768 1652 1990 1869 1824 1962 1836 1976 2120 1857 1528 1560 1427 1198 1094 885 584 532 412 341 253 123 65 159 176 106 91 111 144 172
3318 3307 3209 3308 3182 2881 2637 2667 2458 2379 2288 2313 1966 2010 2108 2055 1770 1910 1834 1817 2000 1587 1616 1519 1266 1095 926 611 640 641 463 318 280 243 18 24 38 20 20 80 66 68
3112 3299 3244 3188 3223 2981 2693 2479 2458 2376 2347 2323 2114 2040 2122 2222 1920 1694 1838 1815 1713 1516 1519 1341 1143 992 660 693 649 583 494 321 301 272 100 1 0 0 0 0 0 0
3108 3144 2881 3102 2837 2849 2790 2545 2172 2366 2369 2366 2360 2164 2329 2231 1837 1451 1852 1560 1532 1428 1356 1209 833 692 750 731 616 540 478 331 313 279 0 0 0 0 0 0 0 0
3016 3092 3108 3023 2832 2851 2814 2462 2184 2092 2280 2348 2500 2311 2241 2118 1908 2009 1885 1782 1662 1365 1061 925 798 749 774 743 634 531 475 324 328 291 0 0 0 0 0 0 0 0
2952 2889 3211 2829 3117 3152 2702 2346 2328 2276 2294 2382 2517 2481 2241 2056 2032 1871 1783 1691 1551 1031 1134 982 846 794 805 747 662 538 432 333 313 26 0 0 0 0 0 0 0 0
3006 2968 3098 3059 3235 3233 2676 2561 2351 2352 2270 2422 2537 2533 2210 2202 2030 1756 1626 1573 1409 1039 1182 1037 898 852 793 754 639 477 350 319 201 0 0 0 0 0 0 0 0 0
2763 2896 3074 3086 3185 3106 2847 2642 2370 2281 2268 2328 2324 2299 2202 2121 1987 1667 1502 1450 1254 1099 1230 1104 974 881 806 751 570 407 322 312 0 0 0 0 0 0 0 0 0 0
2824 2913 3071 3148 3226 2963 2666 2374 2333 2311 2215 2202 2294 2200 2166 2035 1787 1461 1420 1306 1078 1185 1264 1164 1011 875 798 658 514 382 351 226 0 0 0 0 0 0 0 0 0 0
2883 2777 2912 3145 3139 2905 2520 2561 2413 2323 2232 2046 2015 2097 2060 1896 1529 1394 1179 1107 1102 1226 1285 1159 1005 844 776 677 524 431 433 259 0 0 0 0 0 0 0 0 0 0
2631 2771 2826 2892 2932 2842 2773 2571 2424 2318 2132 1801 1816 2055 1947 1687 1504 1396 1240 1144 1120 1251 1283 1150 1043 844 754 605 490 502 513 423 276 0 0 0 0 0 0 0 0 0
2596 2667 2631 2774 2933 2861 2649 2587 2418 2228 1916 1668 1925 1997 1849 1509 1489 1353 1302 1180 1125 1290 1324 1170 1084 920 775 590 460 479 540 519 445 75 0 0 0 0 0 0 0 0
2532 2563 2649 2624 2641 2672 2604 2416 2205 2143 1856 1640 1694 1920 1620 1468 1438 1429 1302 1206 1141 1304 1334 1243 1096 929 804 596 442 447 496 552 546 357 200 0 0 0 0 0 0 0
2326 2540 2580 2560 2478 2482 2489 2357 2040 2016 1656 1696 1694 1574 1590 1448 1502 1452 1301 1224 1102 1268 1324 1300 1173 982 828 719 485 441 516 555 510 348 246 68 0 0 0 0 0 0
2282 2442 2461 2467 2464 2407 2376 2249 2030 1798 1691 1632 1725 1624 1438 1502 1522 1447 1318 1185 1126 1294 1330 1313 1183 1018 743 684 529 502 527 487 424 322 234 126 0 0 0 0 0 0
2315 2477 2427 2295 2289 2376 2316 2070 1889 1677 1529 1566 1709 1700 1525 1502 1550 1481 1308 1193 1154 1272 1322 1315 1182 1057 712 570 507 563 538 413 316 307 229 64 0 0 0 0 0 0
2434 2389 2192 2096 2255 2240 2066 1975 1719 1486 1492 1602 1653 1684 1622 1535 1614 1464 1315 1218 1245 1311 1331 1319 1176 1051 750 539 480 542 498 362 314 316 223 20 0 0 0 0 0 0
2307 2347 2012 2097 2083 2051 1648 1548 1434 1480 1557 1534 1564 1690 1725 1618 1552 1391 1311 1233 1284 1418 1428 1391 1214 1008 723 547 459 497 408 326 325 360 279 200 0 0 0 90 0 0
2208 2144 1966 1982 1942 1828 1568 1477 1420 1476 1459 1496 1634 1708 1719 1664 1641 1550 1327 1264 1347 1454 1532 1448 1205 942 672 551 486 495 362 319 365 423 417 302 187 163 148 149 20 0
2071 1972 2112 1839 1778 1614 1482 1382 1371 1349 1433 1524 1614 1673 1754 1646 1635 1582 1276 1316 1403 1531 1564 1427 1179 934 703 595 499 476 371 340 357 424 462 384 260 183 163 148 98 0
1935 1889 2015 1972 1587 1451 1329 1250 1285 1393 1446 1455 1558 1675 1677 1678 1695 1617 1300 1135 1416 1468 1461 1326 1083 933 730 654 541 392 368 311 317 359 404 428 355 232 174 148 143 97
2028 1911 2037 1780 1637 1352 1252 1245 1326 1347 1432 1424 1491 1612 1633 1689 1693 1631 1320 1078 1205 1218 1125 1172 1093 962 774 669 574 473 409 351 318 284 390 443 420 294 205 168 149 125
1883 1956 1950 1620 1403 1321 1265 1303 1328 1406 1478 1390 1421 1503 1608 1687 1654 1618 1411 1152 1140 1091 1080 1055 1144 1024 818 691 643 583 480 393 346 386 412 452 446 357 260 218 199 159
2091 2025 1882 1465 1384 1343 1352 1340 1382 1464 1499 1440 1415 1452 1529 1564 1618 1622 1418 1096 1195 1048 1120 1142 1140 1032 862 728 717 651 557 457 426 435 438 430 406 353 297 276 233 206

ECMWFNIL_con_mucape_135.txt.gz
CAPE
3577 3441 3160 3023 2908 2843 3082 2976 2720 2592 2641 2667 2556 2337 2128 2115 2095 1933 2000 2086 2136 2262 2262 2190 2014 2179 1966 1635 1240 1169 1377 1042 1166 946 1036 807 821 897 883 949 929 796
3642 3635 3339 3094 3071 3019 3012 3077 2887 2672 2681 2836 2706 2523 2308 2174 2237 2022 2053 1969 2104 2196 2380 2229 1892 2168 2114 1606 1448 1200 1315 1116 1097 994 1010 892 838 843 915 988 885 901
3642 3692 3505 3281 3261 3267 3200 3120 3009 2816 2636 2680 2818 2603 2475 2387 2428 2188 2066 1925 2026 2218 2445 2378 2222 2035 1783 1622 1521 1324 1186 990 774 898 795 634 649 679 793 755 802 767
3745 3716 3625 3569 3413 3287 3023 3004 2936 2767 2498 2708 2781 2278 2425 2305 2343 2196 1988 1942 2018 2319 2416 2326 2088 1751 1723 1690 1572 1223 1195 1061 776 801 740 609 565 514 632 582 660 677
3837 3785 3641 3509 3417 3294 3274 2908 2859 2550 2566 2814 2868 2525 2423 2466 2294 2100 2066 1995 2040 2254 2328 2212 1948 1601 1551 1682 1346 1319 1015 946 842 746 641 421 388 357 418 424 447 398
3724 3604 3656 3581 3582 3438 3265 2978 2873 2709 2596 2681 2926 2560 2292 2017 2008 2046 2156 1948 1935 2140 1952 2072 1546 1566 1441 1261 1402 1240 1078 852 781 587 446 366 370 351 178 72 195 75
3594 3647 3605 3537 3582 3491 3366 3061 2970 2547 2185 2590 2669 2470 2280 2288 2152 2042 1959 1686 1869 1806 1932 1753 1706 1826 1664 1416 1398 1024 1000 596 681 463 388 279 320 205 85 97 96 74
3507 3611 3525 3554 3539 3570 3524 3164 3040 2950 2829 2641 2633 2452 2209 1810 2219 2023 2020 1849 1834 1578 1619 1832 1631 1801 1648 1393 1209 781 726 641 794 371 223 309 226 224 68 9 8 6
3552 3517 3431 3612 3579 3664 3558 3256 3203 3144 2723 2696 2636 2513 2143 2079 2299 2148 2143 1824 1568 1575 1602 1876 1776 1650 1554 992 894 844 812 709 547 499 408 314 204 83 4 0 0 0
3508 3432 3405 3386 3530 3634 3577 3577 3300 3117 2814 2773 2619 2482 2398 2441 2302 2247 1639 1645 1521 1411 1468 1620 1588 1576 1454 968 961 958 848 736 654 482 448 232 38 5 0 0 0 0
3509 3448 3419 3436 3540 3569 3651 3586 3437 3227 2918 2639 2666 2581 2537 2416 2397 1909 1885 1691 1871 1580 1269 1453 1594 1560 1206 1061 1102 960 820 748 713 546 423 216 20 0 0 0 0 0
3664 3537 3349 3358 3409 3591 3610 3622 3521 3208 2850 2771 2652 2515 2607 2559 2509 1907 1823 1987 1852 1476 1308 1183 1553 1467 1139 1005 1024 927 818 803 724 495 386 137 1 0 0 0 0 0
3476 3293 3356 3387 3422 3434 3660 3632 3495 3352 3019 2700 2432 2592 2724 2661 2460 2278 2232 1779 1708 1724 1240 1165 1232 1398 1141 1012 871 793 890 893 766 477 312 327 3 0 0 0 0 0
3421 3367 3350 3329 3296 3276 3359 3630 3550 3407 2964 2648 2620 2720 2686 2711 2522 2316 2358 2124 2116 1653 1357 1413 1460 1478 1213 1173 890 802 1037 878 797 488 398 336 0 0 0 0 0 0
3383 3277 3220 3231 3126 3101 3212 3356 3412 3327 3151 2802 2626 2634 2674 2545 2526 2383 2378 2208 1910 1716 1429 1362 1435 1475 1270 926 852 1088 1142 967 826 597 438 378 145 0 0 0 0 0
3323 3355 3246 3134 2946 3016 3193 3337 3336 3275 3058 2882 2689 2532 2561 2520 2388 2440 2291 2272 1935 1715 1740 1331 1350 1307 913 889 1165 1270 1198 997 839 655 508 478 545 244 96 0 0 0
3385 3238 3085 2946 2749 2746 2872 3117 3210 3133 3047 2852 2476 2404 2406 2472 2452 2298 2282 2233 1886 1670 1526 1461 1443 993 809 1076 1356 1268 1142 1102 946 721 563 470 615 508 410 269 0 0
3205 3148 2992 2848 2751 2719 2665 2789 3143 3017 2964 2892 2655 2456 2405 2454 2454 2342 2207 2180 1990 1700 1550 1496 1473 944 895 1098 1349 1243 1146 1063 978 842 657 475 535 526 400 308 0 0
3174 3143 3024 2839 2748 2643 2659 2811 2925 3018 2791 2766 2590 2513 2427 2453 2431 2336 2158 2048 1932 1658 1713 1310 1112 978 922 1152 1330 1257 1144 981 896 861 773 531 522 463 334 287 13 0
3226 3104 2984 2827 2686 2545 2409 2488 2867 2902 2817 2562 2360 2321 2420 2436 2391 2234 2144 2033 1877 1611 1446 1392 1171 981 954 1159 1385 1232 1115 977 959 770 702 534 516 343 292 242 187 0
3240 3001 2854 2733 2669 2555 2477 2500 2774 2698 2794 2602 2308 2273 2296 2397 2024 2193 2088 1922 1799 1591 1444 1478 1243 1028 963 1192 1393 1220 1093 1040 965 775 593 534 447 326 216 246 40 52
3117 2861 2642 2704 2662 2504 2479 2468 2575 2674 2754 2337 2130 2211 2220 2123 2092 1955 1997 1884 1768 1441 1391 1524 1323 1043 1013 1193 1360 1185 1084 1066 950 794 563 532 420 322 265 282 250 225
2970 2776 2718 2716 2538 2392 2448 2510 2569 2536 2659 2498 2226 2174 2107 2088 1970 1871 1852 1628 1489 1493 1459 1558 1375 1096 1053 1187 1329 1190 1144 1120 994 854 584 474 418 283 285 326 333 314
2906 2798 2739 2640 2554 2336 2430 2446 2544 2626 2514 2051 2070 1949 1971 1861 1794 1651 1725 1559 1514 1596 1532 1549 1393 1124 1094 1202 1276 1213 1183 1167 1048 870 566 455 417 306 282 356 377 388
2630 2587 2663 2613 2421 2311 2568 2411 2507 2398 2272 1921 1859 1990 1900 1778 1408 1482 1468 1393 1496 1655 1692 1581 1538 1338 1064 1155 1230 1272 1197 1146 1003 926 541 407 422 367 301 317 372 416
2648 2599 2530 2466 2419 2415 2334 2460 2455 2342 2153 1768 1826 1683 1831 1690 1441 1339 1580 1394 1510 1667 1700 1659 1640 1485 1109 1134 1323 1304 1214 1122 954 839 562 403 397 371 340 351 347 416

ECMWFNIL_con_mucape_138.txt.gz
CAPE
3222 3101 3100 2932 2933 2758 2722 2647 2668 2693 2622 2411 2370 2353 2372 2290 2180 2062 2114 2208 2258 2262 2225 2292 2262 2233 2183 2104 2227 1923 1854 1782 1765 1884 1749 1706 1608 1647 1227 1246 1190 827
3484 3264 3055 3150 3097 2918 3020 2838 2806 2747 2913 2706 2565 2544 2449 2342 2259 2117 2115 2121 2196 2178 2306 2391 2342 2248 2180 1982 2054 1847 1620 1784 1889 1725 1571 1705 1386 1335 1160 1126 1062 837
3753 3456 3250 3240 3177 3044 3048 3108 2978 2907 2984 2870 2739 2688 2541 2418 2380 2262 2194 2127 2082 2056 2302 2418 2378 2205 2158 2029 1974 1817 1643 1706 1670 1425 1308 1291 1169 1073 1088 1196 1157 1045
3950 3724 3430 3334 3294 3172 3076 3262 3094 2943 2891 2923 2846 2768 2611 2499 2465 2329 2308 2146 2038 1953 2215 2454 2431 2229 2142 2110 1923 1733 1626 1500 1318 1315 1241 1107 1224 961 806 937 1019 1012
3975 3868 3717 3530 3391 3274 3187 3370 3272 3067 2894 2875 2865 2856 2611 2463 2464 2372 2320 2295 2177 2083 2233 2437 2490 2248 2176 2118 1768 1690 1587 1358 1161 1157 1073 920 814 713 892 800 739 771
3920 3831 3772 3644 3509 3429 3319 3258 3317 3179 2970 2899 2895 2832 2737 2533 2408 2327 2320 2314 2228 2134 2230 2450 2537 2369 2258 1952 1786 1701 1560 1387 1147 1201 935 844 733 556 676 852 742 672
3978 3890 3805 3712 3645 3480 3362 3152 3129 3104 2973 2823 2893 2905 2812 2610 2440 2328 2278 2302 2212 2008 2146 2313 2354 2340 2103 1810 1767 1686 1484 1347 1136 987 836 717 609 532 436 408 641 662
3880 3938 3890 3775 3675 3526 3343 3232 3083 3018 3016 2755 2825 2960 2772 2540 2480 2324 2104 2110 1986 1937 1954 2160 2168 2171 2062 1728 1739 1596 1453 1178 1055 891 733 633 587 552 505 334 302 326
3965 4014 3983 3885 3729 3652 3459 3313 3235 3110 3020 2812 2713 2923 2628 2356 2301 2342 2262 2060 1932 1789 1806 1903 2063 2072 1928 1843 1715 1478 1264 1097 1021 940 795 680 635 614 552 341 325 216
4043 3936 3979 3871 3690 3701 3654 3471 3364 3216 3019 2833 2654 2845 2715 2309 2317 2388 2209 2012 1838 1795 1775 1777 1823 1854 1860 1827 1590 1417 1287 1160 1068 985 844 734 684 708 639 368 202 84
4087 4020 3882 3814 3734 3711 3777 3708 3510 3356 3044 2846 2722 2785 2704 2342 2217 2188 2225 1998 2000 1702 1651 1661 1780 1742 1850 1716 1530 1422 1297 1190 1113 976 857 765 792 813 667 458 141 18
4092 3894 3775 3760 3745 3712 3775 3794 3655 3435 3215 2715 2598 2770 2552 2266 2306 2326 2081 1948 1833 1744 1558 1469 1638 1914 1892 1752 1620 1494 1348 1194 1057 884 799 781 886 828 671 534 44 0
4054 3833 3658 3710 3675 3715 3730 3783 3727 3497 3290 3006 2631 2748 2423 2150 2387 2422 2099 1959 1932 1750 1601 1458 1543 1876 1856 1729 1574 1454 1298 1110 902 774 728 799 884 755 696 583 104 0
4006 3713 3532 3567 3634 3683 3732 3764 3721 3582 3335 2980 2754 2620 2448 2317 2482 2437 2184 2030 2067 1949 1845 1526 1311 1648 1694 1606 1478 1273 1066 921 802 751 722 797 786 703 744 623 195 0
4088 3705 3461 3420 3413 3587 3681 3695 3693 3647 3445 3008 2790 2664 2525 2352 2506 2470 2234 2156 2113 1952 1811 1579 1334 1390 1519 1566 1402 1256 1125 1029 868 761 727 710 708 730 749 663 262 0
4051 3825 3557 3458 3424 3480 3589 3659 3619 3590 3512 3176 2889 2737 2604 2416 2535 2492 2368 2382 2140 1970 1804 1525 1432 1399 1561 1540 1422 1266 1164 1038 877 766 669 616 685 809 865 718 392 13
3870 3776 3634 3556 3411 3341 3394 3524 3575 3578 3544 3255 2950 2772 2614 2489 2265 2524 2359 2356 2204 1985 1851 1665 1493 1384 1376 1503 1402 1278 1215 1056 849 733 595 593 770 846 884 836 501 316
3217 3511 3494 3404 3381 3272 3312 3367 3438 3504 3450 3272 3008 2739 2587 2462 2555 2547 2463 2342 2239 2047 2008 1905 1665 1486 1394 1501 1395 1319 1250 1082 818 669 567 716 958 966 978 908 615 397
2174 2882 3156 3164 3227 3237 3216 3179 3256 3407 3466 3326 3062 2843 2633 2663 2493 2479 2487 2401 2265 2128 2066 2057 1891 1667 1401 1383 1385 1310 1227 1085 839 634 654 978 1010 946 936 955 688 479
1590 1919 2574 2644 2948 3186 3042 2974 3068 3240 3385 3329 3117 2889 2698 2543 2403 2312 2430 2412 2339 2190 2070 2035 1949 1806 1486 1333 1248 1252 1176 1086 878 662 810 1032 1027 991 965 935 826 570
1410 1364 1548 2140 2603 2773 3034 2960 2988 3123 3256 3218 3066 2860 2678 2540 2426 2303 2268 2353 2324 2251 2140 2044 1928 1850 1628 1418 1248 1185 1145 1015 802 654 910 1038 1038 1049 984 869 829 679
1374 1494 1519 1895 2338 2546 2742 2654 2714 2968 3088 3103 3009 2877 2675 2519 2396 2297 2170 2155 2315 2209 2114 1996 1892 1832 1666 1422 1248 1178 1130 1001 750 677 884 1067 1077 1107 1008 858 870 694
1184 1694 1397 1469 1667 2193 2460 2529 2627 2888 3067 2977 2879 2811 2667 2492 2371 2286 2163 2133 2238 2122 2050 1970 1858 1788 1690 1579 1382 1257 1141 1024 823 690 896 1057 1149 1084 962 858 819 755
808 1078 1249 1554 1590 1877 2087 2506 2439 2682 2956 2844 2745 2664 2596 2466 2304 2164 2120 2141 2112 2074 2028 1889 1799 1764 1681 1565 1440 1393 1291 1137 1008 769 939 1109 1073 953 863 794 788 738
754 1038 1087 1040 1228 1835 2126 2217 2372 2484 2720 2711 2652 2564 2489 2413 2256 2080 2090 2060 2033 2022 1957 1798 1754 1746 1658 1532 1470 1372 1258 1174 1104 795 964 1131 1010 819 737 737 812 725
564 811 649 640 898 1323 1757 2041 2224 2332 2556 2591 2536 2466 2362 2301 2225 2121 2036 1985 1966 1906 1844 1768 1741 1730 1637 1500 1408 1304 1228 1224 1142 827 980 1078 938 772 699 691 819 799

ECMWFNIL_con_mucape_141.txt.gz
CAPE
1994 1738 1673 1542 1443 1685 1808 1601 1774 1887 1798 1625 1454 1272 1090 1152 1190 1127 1116 1390 1498 1523 1739 1983 1959 1828 1837 1744 2010 2093 2034 1923 1760 1625 1502 1352 1167 1007 908 753 782 850
2171 1885 1826 1765 1599 1590 1906 1873 1798 1966 1927 1757 1573 1379 1276 1112 1189 1243 1212 1418 1670 1627 1672 1864 1979 1935 1882 1802 1965 2051 2022 1932 1814 1657 1556 1422 1265 1127 959 981 1000 945
2344 2055 1908 1940 1850 1714 1848 2037 1883 1985 2037 1934 1773 1586 1405 1392 1346 1409 1430 1499 1745 1786 1730 1823 1968 1948 1874 1817 1931 2011 2007 1937 1824 1720 1607 1451 1305 1184 1006 997 1101 1078
2492 2256 2085 2070 2095 1967 1846 2019 2053 2032 2096 2089 1967 1753 1503 1719 1628 1566 1589 1629 1778 1852 1833 1812 1953 2012 1840 1809 1834 1902 1918 1881 1809 1736 1616 1470 1338 1240 1128 1137 1104 1113
2653 2480 2333 2239 2280 2247 2023 2019 2129 2128 2144 2194 2100 1944 1723 1835 1894 1789 1696 1691 1762 1890 1906 1889 1881 2006 1985 1834 1832 1844 1837 1825 1749 1684 1574 1466 1388 1292 1220 1214 1206 1102
2803 2700 2558 2460 2425 2446 2300 2174 2192 2187 2181 2211 2218 2089 1893 1900 1990 1981 1873 1764 1752 1843 1920 1924 1928 1969 2039 1957 1861 1833 1791 1749 1729 1615 1532 1462 1424 1366 1290 1174 1008 822
2912 2940 2912 2760 2619 2558 2496 2381 2338 2266 2205 2244 2337 2244 2106 2046 2046 2047 2003 1882 1775 1802 1890 1927 1942 1987 2052 2045 1934 1835 1804 1755 1677 1525 1473 1471 1451 1332 1026 942 886 830
3003 3034 3140 3104 2924 2724 2645 2536 2512 2476 2330 2301 2387 2432 2316 2225 2147 2111 2079 2022 1868 1837 1856 1918 1970 2015 2048 2066 2011 1929 1827 1752 1652 1477 1356 1327 1140 1104 1049 947 890 807
3135 3117 3148 3241 3171 3007 2791 2680 2607 2651 2603 2413 2438 2517 2497 2396 2293 2162 2116 2048 1952 1934 1900 1892 1928 2055 2083 2091 2053 1973 1880 1801 1659 1450 1299 1204 1155 1079 1006 912 842 774
3348 3284 3279 3280 3269 3189 3033 2850 2768 2666 2712 2636 2522 2540 2541 2497 2407 2269 2130 2098 2048 1998 1978 1896 1936 2047 2108 2112 2066 1988 1899 1815 1672 1463 1258 1160 1123 1010 911 833 764 729
3496 3455 3440 3398 3378 3322 3210 3063 2872 2785 2752 2750 2629 2532 2554 2542 2485 2356 2203 2134 2115 2068 2000 1932 1940 2039 2112 2136 2073 1998 1936 1851 1708 1507 1268 1138 1074 977 870 883 827 688
3479 3510 3465 3468 3454 3393 3325 3202 3080 2894 2750 2763 2732 2566 2509 2525 2524 2440 2326 2209 2118 2074 2032 2003 1954 1988 2094 2142 2120 2050 1969 1864 1732 1560 1294 1094 1042 963 932 925 880 709
3226 3297 3370 3428 3454 3457 3363 3282 3191 3063 2878 2734 2765 2734 2607 2553 2497 2439 2358 2276 2183 2059 2033 2029 1975 1916 1995 2095 2103 2076 1991 1868 1712 1554 1346 1123 1041 1021 1000 979 911 750
3046 3090 3149 3233 3364 3430 3457 3361 3250 3130 3008 2858 2753 2764 2745 2660 2582 2492 2412 2322 2239 2130 2040 2030 1986 1882 1858 1936 1973 1945 1921 1849 1718 1547 1382 1264 1182 1114 1057 1026 915 758
3340 3267 3150 3085 3154 3344 3398 3385 3286 3206 3122 2996 2835 2747 2722 2664 2588 2509 2430 2354 2286 2184 2063 2000 1936 1865 1796 1791 1840 1849 1850 1808 1685 1538 1421 1349 1259 1172 1099 1053 894 718
3459 3407 3086 2233 2470 3004 3320 3389 3315 3254 3198 3092 2967 2871 2797 2702 2647 2565 2473 2393 2332 2207 1988 2014 2012 1956 1853 1742 1742 1768 1806 1781 1690 1546 1438 1359 1288 1204 1118 1039 824 644
2061 2328 2015 2051 2574 3053 3300 3330 3289 3238 3237 3207 3124 3047 2924 2794 2696 2598 2505 2426 2329 2217 2030 2021 2046 2012 1931 1799 1646 1724 1733 1715 1664 1552 1438 1353 1297 1244 1211 1001 723 590
1634 1624 2067 2607 2996 3221 3342 3353 3308 3275 3256 3238 3216 3142 3037 2889 2751 2640 2541 2460 2386 2272 2076 2047 2059 2002 1897 1788 1680 1674 1700 1668 1604 1530 1444 1366 1316 1252 1158 884 646 604
1822 2182 2639 3030 3254 3348 3406 3320 3232 3214 3210 3246 3224 3197 3113 2980 2854 2725 2591 2498 2422 2313 2156 2020 2032 1940 1853 1737 1674 1599 1676 1639 1580 1517 1442 1351 1258 1171 966 757 656 618
1757 2137 2684 3249 3490 3516 3450 3254 3092 3101 3169 3218 3237 3221 3155 3032 2884 2730 2648 2541 2428 2324 2174 2027 2043 1974 1885 1780 1647 1530 1612 1611 1542 1470 1395 1266 1115 948 824 762 699 610
1594 1883 2341 2964 3437 3574 3506 3301 3086 3001 3065 3141 3187 3212 3157 3061 2933 2808 2674 2541 2435 2368 2234 2123 2064 1984 1909 1816 1692 1586 1494 1514 1470 1433 1323 1195 1071 986 916 814 704 570
626 904 1557 2442 3040 3381 3434 3362 3241 3048 2952 3040 3092 3128 3147 3054 2925 2824 2721 2592 2494 2407 2286 2160 2122 2039 1950 1873 1814 1733 1595 1437 1340 1325 1255 1180 1096 1010 970 857 695 538
896 742 584 704 1679 2750 3216 3298 3311 3192 2885 2954 3013 3070 3061 2996 2898 2763 2658 2550 2476 2420 2325 2254 2154 2082 1978 1919 1876 1817 1698 1512 1430 1404 1336 1236 1140 1048 970 867 700 542
891 764 644 803 1160 1799 2298 2905 3099 3146 3122 2917 2914 2983 3025 3013 2926 2767 2630 2539 2505 2447 2402 2335 2232 2148 2048 1950 1877 1789 1735 1628 1525 1467 1397 1311 1187 1082 1006 924 768 569
787 902 867 748 1015 1063 1424 2208 2720 3047 3076 3033 2835 2845 2905 2959 2954 2828 2653 2534 2486 2454 2408 2340 2230 2181 2136 2054 1922 1833 1748 1669 1585 1503 1397 1316 1202 1118 1023 966 853 578
571 694 769 820 921 1011 888 882 1798 2617 2880 2862 2802 2777 2796 2747 2778 2731 2685 2605 2490 2400 2344 2304 2223 2188 2173 2139 2039 1917 1842 1736 1645 1576 1489 1388 1251 1173 1080 965 857 641